Casa Grande, AZ

9:36 PM MST on November 21, 2019 (GMT -0700)
Casa Grande Municipal

Weather History for KCGZ - October, 2019

Change the Weather History Date:

Monday, October 21, 2019

  Actual Average Record
Temperature  
Mean Temperature 64 °F -  
Max Temperature 82 °F 81 °F 100 °F (2003)
Min Temperature 46 °F 53 °F 46 °F (1996)
Degree Days  
Heating Degree Days 1    
Growing Degree Days 14 (Base 50)    
Moisture  
Dew Point 18 °F    
Average Humidity 17    
Maximum Humidity 33    
Minimum Humidity 9    
Precipitation  
Precipitation 0.00 in - - ()
Sea Level Pressure  
Sea Level Pressure 29.99 in    
Wind  
Wind Speed 3 mph ()    
Max Wind Speed 9 mph    
Max Gust Speed -    
Visibility 10.0 miles    
Events      
Averages and records for this station are not official NWS values.
T = Trace of Precipitation, MM = Missing Value Source: Averaged Metar Reports

Daily Weather History Graph

Daily Weather History Graph

Search for Another Location

Airport or City:

Astronomy

Oct. 21, 2019 Rise Set
Actual Time 6:35 AM MST 5:47 PM MST
Civil Twilight 6:10 AM MST 6:12 PM MST
Nautical Twilight 5:41 AM MST 6:40 PM MST
Astronomical Twilight 5:13 AM MST 7:09 PM MST
Moon No Moon Rise 1:46 PM MST (10/21)
Length of Visible Light 12h 01m
Length of Day
11h 11m
Waning Gibbous, 47% of the Moon is Illuminated
Oct 21
Waning Gibbous
Oct 27
New
Nov 4
First Quarter
Nov 12
Full
Nov 19
Last Quarter

Hourly Weather History & Observations

Time (MST) Temp. Dew Point Humidity Pressure Visibility Wind Dir Wind Speed Gust Speed Precip Events Conditions
12:56 AM 64.0 °F 14.0 °F 14% 29.91 in 10.0 mi WNW 8.1 mph - N/A   Clear
1:56 AM 59.0 °F 14.0 °F 17% 29.91 in 10.0 mi Calm Calm - N/A   Clear
2:56 AM 53.1 °F 12.9 °F 20% 29.93 in 10.0 mi West 4.6 mph - N/A   Clear
3:56 AM 54.0 °F 14.0 °F 21% 29.92 in 10.0 mi WNW 6.9 mph - N/A   Clear
4:56 AM 55.0 °F 19.0 °F 24% 29.94 in 10.0 mi NE 4.6 mph - N/A   Clear
5:56 AM 48.9 °F 19.0 °F 31% 29.97 in 10.0 mi Calm Calm - N/A   Clear
6:56 AM 46.9 °F 19.0 °F 33% 30.00 in 10.0 mi NNE 5.8 mph - N/A   Clear
7:56 AM 57.9 °F 21.0 °F 24% 30.02 in 10.0 mi East 3.5 mph - N/A   Clear
8:56 AM 61.0 °F 21.0 °F 21% 30.05 in 10.0 mi Calm Calm - N/A   Clear
9:56 AM 66.0 °F 21.9 °F 19% 30.05 in 10.0 mi East 4.6 mph - N/A   Clear
10:56 AM 72.0 °F 21.0 °F 15% 30.04 in 10.0 mi Calm Calm - N/A   Clear
11:56 AM 77.0 °F 19.0 °F 11% 30.03 in 10.0 mi Calm Calm - N/A   Clear
12:56 PM 80.1 °F 16.0 °F 9% 30.00 in 10.0 mi NNW 3.5 mph - N/A   Clear
1:56 PM 82.0 °F 18.0 °F 9% 29.97 in 10.0 mi NNW 6.9 mph - N/A   Clear
2:56 PM 82.9 °F 18.0 °F 9% 29.97 in 10.0 mi NW 9.2 mph - N/A   Clear
3:56 PM 82.9 °F 19.9 °F 10% 29.97 in 10.0 mi NNW 9.2 mph - N/A   Clear
4:56 PM 81.0 °F 21.0 °F 11% 29.97 in 9.0 mi WSW 6.9 mph - N/A   Clear
5:56 PM 75.9 °F 19.9 °F 12% 29.99 in 10.0 mi Calm Calm - N/A   Clear
6:56 PM 72.0 °F 19.9 °F 14% 30.01 in 10.0 mi North 3.5 mph - N/A   Clear
7:56 PM 64.0 °F 17.1 °F 16% 30.03 in 10.0 mi NNW 3.5 mph - N/A   Clear
8:56 PM 64.0 °F 18.0 °F 17% 30.03 in 10.0 mi Calm Calm - N/A   Clear
9:56 PM 64.0 °F 19.9 °F 18% 30.04 in 10.0 mi Calm Calm - N/A   Clear
10:56 PM 63.0 °F 19.9 °F 19% 30.05 in 10.0 mi Calm Calm - N/A   Clear
11:56 PM 55.9 °F 18.0 °F 23% 30.06 in 10.0 mi ENE 4.6 mph - N/A   Clear